Date,TemperatureHighF,TemperatureAvgF,TemperatureLowF,DewpointHighF,DewpointAvgF,DewpointLowF,HumidityHigh,HumidityAvg,HumidityLow,PressureMaxIn,PressureMinIn,WindSpeedMaxMPH,WindSpeedAvgMPH,GustSpeedMaxMPH,PrecipitationSumIn
2013-2-1,28.8,17.3,9.4,27.3,10.5,5.7,94,75,61,30.43,29.83,8,2,17,0.00
2013-2-2,30.3,19.9,7.9,29.0,16.8,5.3,95,88,55,30.41,30.00,2,0,6,0.01
2013-2-3,31.1,28.4,24.9,29.1,25.1,20.1,95,87,80,30.11,29.87,5,1,15,0.00
2013-2-4,38.9,30.4,23.1,35.0,23.9,18.3,96,77,56,30.14,29.86,3,0,11,0.15
2013-2-5,41.8,38.3,36.0,39.8,37.2,34.9,98,96,91,29.93,29.84,2,0,9,0.36
2013-2-6,40.8,35.9,28.8,36.8,31.8,27.5,98,85,69,30.28,29.93,6,0,16,0.00
2013-2-7,55.9,40.9,28.9,40.0,33.5,27.7,97,78,44,30.28,29.93,4,1,10,0.00
2013-2-8,45.9,41.4,31.0,42.3,35.3,24.7,95,79,71,30.22,29.80,7,2,19,0.07
2013-2-9,40.4,32.3,28.1,25.4,21.1,19.0,80,64,43,30.41,30.22,4,1,10,0.00
2013-2-10,61.8,41.7,22.9,41.0,26.1,19.4,94,62,23,30.32,29.92,6,1,12,0.04
2013-2-11,65.0,56.3,45.7,51.7,38.2,23.6,81,54,26,29.96,29.73,7,3,23,0.01
2013-2-12,54.8,44.0,35.5,29.4,26.3,22.0,69,51,30,30.12,29.88,4,1,15,0.00
2013-2-13,44.1,35.5,31.6,37.3,31.7,25.6,96,86,57,29.91,29.63,3,0,7,0.35
2013-2-14,50.0,40.1,32.5,34.9,31.2,28.3,93,72,47,29.99,29.89,4,1,10,0.00
2013-2-15,41.9,36.1,33.1,34.5,33.0,30.0,96,89,70,30.06,29.92,2,0,9,0.14
2013-2-16,33.0,29.1,23.9,32.0,24.5,15.2,96,83,66,30.05,29.95,6,1,15,0.00
2013-2-17,26.4,20.9,16.0,16.1,11.4,4.5,87,67,54,30.31,30.00,6,2,15,0.00
2013-2-18,56.2,34.3,11.6,35.5,21.5,9.2,92,64,37,30.35,29.90,5,1,12,0.02
2013-2-19,50.1,43.1,31.0,41.9,30.7,21.1,88,63,40,29.99,29.73,10,4,19,0.04
2013-2-20,33.9,27.9,21.2,21.5,17.0,12.3,78,64,46,30.28,29.99,5,3,16,0.00
2013-2-21,34.9,25.6,17.2,20.4,16.6,12.5,86,69,53,30.36,30.18,2,0,7,0.00
2013-2-22,57.6,43.0,29.7,42.9,35.2,19.8,92,75,58,30.22,29.93,4,1,11,0.01
2013-2-23,57.7,46.3,37.7,44.8,39.1,33.5,95,78,51,29.94,29.80,3,0,7,0.00
2013-2-24,45.6,36.8,28.0,34.2,27.5,21.4,93,71,43,30.16,29.85,8,2,17,0.01
2013-2-25,49.3,33.8,21.2,26.7,22.6,19.2,93,67,36,30.20,29.99,2,0,7,0.00
2013-2-26,55.2,43.3,29.1,44.2,36.6,24.6,89,77,59,30.00,29.48,7,2,17,0.15
2013-2-27,46.9,41.9,34.7,44.1,37.3,32.5,94,84,65,29.73,29.52,4,1,12,0.12
2013-2-28,34.9,34.2,33.3,33.6,31.8,29.7,96,91,84,29.85,29.68,3,1,12,0.04